Regional Weather Roundup
Issued by NWS

Home | Current Version | Previous Version | Graphics & Text | Print | Product List | Glossary Off
Versions: 1 2 3 4 5 6 7 8 9 10 11 12 13 14 15 16 17 18 19 20 21 22 23 24 25 26 27 28 29 30 31 32 33 34 35 36 37 38 39 40 41 42 43 44 45 46 47 48 49 50

000
ASUS43 KTOP 302159
RWRKS

WEATHER ROUNDUP FOR KANSAS
NATIONAL WEATHER SERVICE GOODLAND KS
500 PM CDT WED JUL 30 2014

NOTE:  "FAIR" INDICATES FEW OR NO CLOUDS BELOW 12,000 FEET WITH NO
SIGNIFICANT WEATHER AND/OR OBSTRUCTIONS TO VISIBILITY.

KSZ001>006-013>018-027>032-041>047-302300-
NORTHWEST KANSAS

CITY           SKY/WX    TMP DP  RH WIND       PRES   REMARKS
GOODLAND       CLOUDY    70  55  59 SE3       30.26S
HAYS           PTSUNNY   73  55  53 NE8       30.16F
HILL CITY      MOSUNNY   78  52  40 NE8       30.17S
RUSSELL        PTSUNNY   76  56  49 NE10      30.13F
$$

KSZ061>065-074>080-084>089-302300-
SOUTHWEST KANSAS

CITY           SKY/WX    TMP DP  RH WIND       PRES   REMARKS
DODGE CITY     CLOUDY    65  60  84 NE14      30.16S
ELKHART          N/A     66  60  81 NE13        N/A
GARDEN CITY    CLOUDY    67  60  78 NE13      30.19S
GREAT BEND       N/A     70  61  73 NE12      30.14S
LIBERAL        CLOUDY    66  61  82 N20G26    30.18R
$$

KSZ066>073-081>083-090>101-302300-
SOUTHEAST KANSAS

CITY           SKY/WX    TMP DP  RH WIND       PRES   REMARKS
CHANUTE        LGT RAIN  69  66  90 E5        30.09F
COFFEYVILLE    LGT RAIN  70  67  90 E7        30.06F FOG
HUTCHINSON     CLOUDY    68  64  87 NE7       30.12S
NEWTON         CLOUDY    66  61  82 NE9       30.15S
PARSONS        LGT RAIN  69  66  90 VRB3      30.09S FOG
WICHITA INTL   LGT RAIN  68  65  90 E10       30.09S FOG
WICHITA JABRA  LGT RAIN  67  32  27 E9        30.10S
WICHITA MCCONL LGT RAIN  66  66 100 E10       30.10S
WINFIELD       LGT RAIN  69  68  96 E10       30.08S FOG
$$

KSZ007>012-019>026-033>040-048>060-102>105-302300-
NORTHEAST KANSAS

CITY           SKY/WX    TMP DP  RH WIND       PRES   REMARKS
CONCORDIA      MOSUNNY   79  55  43 MISG      30.11F
EMPORIA        CLOUDY    70  64  81 N6        30.10F
LAWRENCE       CLOUDY    81  58  45 N6        30.08F
MANHATTAN      PTSUNNY   78  56  46 E5        30.09F
OLATHE IND     CLOUDY    76  58  53 SW6       30.09F
OLATHE EXE     CLOUDY    75  59  57 SE7       30.08F
SALINA         CLOUDY    76  59  55 NE6       30.12F
TOPEKA BILLARD CLOUDY    81  55  40 NE8       30.09S
TOPEKA FORBES  CLOUDY    79  54  41 NE3       30.09F
$$



USA.gov is the U.S. government's official web portal to all federal, state and local government web resources and services.